station,date_time,water_elev
365057089140401,05/03/2011 03:23,304.96
365057089140401,05/03/2011 03:24,305.28
365057089140401,05/03/2011 03:25,305.75
365057089140401,05/03/2011 03:26,306.08
365057089140401,05/03/2011 03:27,306.31
365057089140401,05/03/2011 03:28,306.51
365057089140401,05/03/2011 03:29,306.69
365057089140401,05/03/2011 03:30,306.86
365057089140401,05/03/2011 03:31,307.04
365057089140401,05/03/2011 03:32,307.24
365057089140401,05/03/2011 03:33,307.43
365057089140401,05/03/2011 03:34,307.62
365057089140401,05/03/2011 03:35,307.82
365057089140401,05/03/2011 03:36,308.04
365057089140401,05/03/2011 03:37,308.14
365057089140401,05/03/2011 03:38,308.23
365057089140401,05/03/2011 03:39,308.31
365057089140401,05/03/2011 03:40,308.37
365057089140401,05/03/2011 03:41,308.43
365057089140401,05/03/2011 03:42,308.51
365057089140401,05/03/2011 03:43,308.59
365057089140401,05/03/2011 03:44,308.65
365057089140401,05/03/2011 03:45,308.72
365057089140401,05/03/2011 03:46,308.78
365057089140401,05/03/2011 03:47,308.84
365057089140401,05/03/2011 03:48,308.89
365057089140401,05/03/2011 03:49,308.94
365057089140401,05/03/2011 03:50,309
365057089140401,05/03/2011 03:51,309.07
365057089140401,05/03/2011 03:52,309.13
365057089140401,05/03/2011 03:53,309.2
365057089140401,05/03/2011 03:54,309.26
365057089140401,05/03/2011 03:55,309.31
365057089140401,05/03/2011 03:56,309.38
365057089140401,05/03/2011 03:57,309.44
365057089140401,05/03/2011 03:58,309.49
365057089140401,05/03/2011 03:59,309.55
365057089140401,05/03/2011 04:00,309.61
365057089140401,05/03/2011 04:01,309.67
365057089140401,05/03/2011 04:02,309.72
365057089140401,05/03/2011 04:03,309.78
365057089140401,05/03/2011 04:04,309.82
365057089140401,05/03/2011 04:05,309.85
365057089140401,05/03/2011 04:06,309.9
365057089140401,05/03/2011 04:07,309.95
365057089140401,05/03/2011 04:08,309.99
365057089140401,05/03/2011 04:09,310.03
365057089140401,05/03/2011 04:10,310.06
365057089140401,05/03/2011 04:11,310.1
365057089140401,05/03/2011 04:12,310.13
365057089140401,05/03/2011 04:13,310.16
365057089140401,05/03/2011 04:14,310.21
365057089140401,05/03/2011 04:15,310.26
365057089140401,05/03/2011 04:16,310.28
365057089140401,05/03/2011 04:17,310.33
365057089140401,05/03/2011 04:18,310.36
365057089140401,05/03/2011 04:19,310.4
365057089140401,05/03/2011 04:20,310.42
365057089140401,05/03/2011 04:21,310.45
365057089140401,05/03/2011 04:22,310.5
365057089140401,05/03/2011 04:23,310.52
365057089140401,05/03/2011 04:24,310.56
365057089140401,05/03/2011 04:25,310.6
365057089140401,05/03/2011 04:26,310.63
365057089140401,05/03/2011 04:27,310.65
365057089140401,05/03/2011 04:28,310.68
365057089140401,05/03/2011 04:29,310.71
365057089140401,05/03/2011 04:30,310.74
365057089140401,05/03/2011 04:31,310.77
365057089140401,05/03/2011 04:32,310.82
365057089140401,05/03/2011 04:33,310.85
365057089140401,05/03/2011 04:34,310.87
365057089140401,05/03/2011 04:35,310.9
365057089140401,05/03/2011 04:36,310.94
365057089140401,05/03/2011 04:37,310.94
365057089140401,05/03/2011 04:38,310.96
365057089140401,05/03/2011 04:39,310.98
365057089140401,05/03/2011 04:40,310.99
365057089140401,05/03/2011 04:41,311.02
365057089140401,05/03/2011 04:42,311.04
365057089140401,05/03/2011 04:43,311.06
365057089140401,05/03/2011 04:44,311.1
365057089140401,05/03/2011 04:45,311.1
365057089140401,05/03/2011 04:46,311.13
365057089140401,05/03/2011 04:47,311.14
365057089140401,05/03/2011 04:48,311.16
365057089140401,05/03/2011 04:49,311.19
365057089140401,05/03/2011 04:50,311.19
365057089140401,05/03/2011 04:51,311.21
365057089140401,05/03/2011 04:52,311.24
365057089140401,05/03/2011 04:53,311.26
365057089140401,05/03/2011 04:54,311.28
365057089140401,05/03/2011 04:55,311.29
365057089140401,05/03/2011 04:56,311.31
365057089140401,05/03/2011 04:57,311.34
365057089140401,05/03/2011 04:58,311.35
365057089140401,05/03/2011 04:59,311.35
365057089140401,05/03/2011 05:00,311.37
365057089140401,05/03/2011 05:01,311.39
365057089140401,05/03/2011 05:02,311.4
365057089140401,05/03/2011 05:03,311.42
365057089140401,05/03/2011 05:04,311.44
365057089140401,05/03/2011 05:05,311.44
365057089140401,05/03/2011 05:06,311.48
365057089140401,05/03/2011 05:07,311.48
365057089140401,05/03/2011 05:08,311.5
365057089140401,05/03/2011 05:09,311.5
365057089140401,05/03/2011 05:10,311.52
365057089140401,05/03/2011 05:11,311.53
365057089140401,05/03/2011 05:12,311.55
365057089140401,05/03/2011 05:13,311.56
365057089140401,05/03/2011 05:14,311.58
365057089140401,05/03/2011 05:15,311.59
365057089140401,05/03/2011 05:16,311.6
365057089140401,05/03/2011 05:17,311.6
365057089140401,05/03/2011 05:18,311.61
365057089140401,05/03/2011 05:19,311.63
365057089140401,05/03/2011 05:20,311.64
365057089140401,05/03/2011 05:21,311.66
365057089140401,05/03/2011 05:22,311.66
365057089140401,05/03/2011 05:23,311.68
365057089140401,05/03/2011 05:24,311.7
365057089140401,05/03/2011 05:25,311.7
365057089140401,05/03/2011 05:26,311.7
365057089140401,05/03/2011 05:27,311.72
365057089140401,05/03/2011 05:28,311.74
365057089140401,05/03/2011 05:29,311.74
365057089140401,05/03/2011 05:30,311.75
365057089140401,05/03/2011 05:31,311.76
365057089140401,05/03/2011 05:32,311.77
365057089140401,05/03/2011 05:33,311.79
365057089140401,05/03/2011 05:34,311.81
365057089140401,05/03/2011 05:35,311.83
365057089140401,05/03/2011 05:36,311.82
365057089140401,05/03/2011 05:37,311.84
365057089140401,05/03/2011 05:38,311.84
365057089140401,05/03/2011 05:39,311.85
365057089140401,05/03/2011 05:40,311.88
365057089140401,05/03/2011 05:41,311.88
365057089140401,05/03/2011 05:42,311.9
365057089140401,05/03/2011 05:43,311.9
365057089140401,05/03/2011 05:44,311.92
365057089140401,05/03/2011 05:45,311.94
365057089140401,05/03/2011 05:46,311.95
365057089140401,05/03/2011 05:47,311.94
365057089140401,05/03/2011 05:48,311.96
365057089140401,05/03/2011 05:49,311.98
365057089140401,05/03/2011 05:50,311.98
365057089140401,05/03/2011 05:51,312
365057089140401,05/03/2011 05:52,312
365057089140401,05/03/2011 05:53,312.01
365057089140401,05/03/2011 05:54,312.01
365057089140401,05/03/2011 05:55,312
365057089140401,05/03/2011 05:56,312.02
365057089140401,05/03/2011 05:57,312.04
365057089140401,05/03/2011 05:58,312.05
365057089140401,05/03/2011 05:59,312.04
365057089140401,05/03/2011 06:00,312.06
365057089140401,05/03/2011 06:01,312.06
365057089140401,05/03/2011 06:02,312.06
365057089140401,05/03/2011 06:03,312.07
365057089140401,05/03/2011 06:04,312.08
365057089140401,05/03/2011 06:05,312.11
365057089140401,05/03/2011 06:06,312.1
365057089140401,05/03/2011 06:07,312.13
365057089140401,05/03/2011 06:08,312.12
365057089140401,05/03/2011 06:09,312.14
365057089140401,05/03/2011 06:10,312.15
365057089140401,05/03/2011 06:11,312.14
365057089140401,05/03/2011 06:12,312.16
365057089140401,05/03/2011 06:13,312.17
365057089140401,05/03/2011 06:14,312.18
365057089140401,05/03/2011 06:15,312.18
365057089140401,05/03/2011 06:16,312.17
365057089140401,05/03/2011 06:17,312.19
365057089140401,05/03/2011 06:18,312.2
365057089140401,05/03/2011 06:19,312.2
365057089140401,05/03/2011 06:20,312.2
365057089140401,05/03/2011 06:21,312.21
365057089140401,05/03/2011 06:22,312.22
365057089140401,05/03/2011 06:23,312.22
365057089140401,05/03/2011 06:24,312.23
365057089140401,05/03/2011 06:25,312.25
365057089140401,05/03/2011 06:26,312.25
365057089140401,05/03/2011 06:27,312.26
365057089140401,05/03/2011 06:28,312.28
365057089140401,05/03/2011 06:29,312.26
365057089140401,05/03/2011 06:30,312.25
365057089140401,05/03/2011 06:31,312.29
365057089140401,05/03/2011 06:32,312.26
365057089140401,05/03/2011 06:33,312.28
365057089140401,05/03/2011 06:34,312.29
365057089140401,05/03/2011 06:35,312.31
365057089140401,05/03/2011 06:36,312.3
365057089140401,05/03/2011 06:37,312.29
365057089140401,05/03/2011 06:38,312.29
365057089140401,05/03/2011 06:39,312.32
365057089140401,05/03/2011 06:40,312.34
365057089140401,05/03/2011 06:41,312.34
365057089140401,05/03/2011 06:42,312.34
365057089140401,05/03/2011 06:43,312.35
365057089140401,05/03/2011 06:44,312.35
365057089140401,05/03/2011 06:45,312.35
365057089140401,05/03/2011 06:46,312.34
365057089140401,05/03/2011 06:47,312.34
365057089140401,05/03/2011 06:48,312.34
365057089140401,05/03/2011 06:49,312.36
365057089140401,05/03/2011 06:50,312.38
365057089140401,05/03/2011 06:51,312.38
365057089140401,05/03/2011 06:52,312.39
365057089140401,05/03/2011 06:53,312.38
365057089140401,05/03/2011 06:54,312.39
365057089140401,05/03/2011 06:55,312.37
365057089140401,05/03/2011 06:56,312.4
365057089140401,05/03/2011 06:57,312.4
365057089140401,05/03/2011 06:58,312.4
365057089140401,05/03/2011 06:59,312.4
365057089140401,05/03/2011 07:00,312.4
365057089140401,05/03/2011 07:01,312.4
365057089140401,05/03/2011 07:02,312.42
365057089140401,05/03/2011 07:03,312.43
365057089140401,05/03/2011 07:04,312.43
365057089140401,05/03/2011 07:05,312.43
365057089140401,05/03/2011 07:06,312.44
365057089140401,05/03/2011 07:07,312.44
365057089140401,05/03/2011 07:08,312.44
365057089140401,05/03/2011 07:09,312.44
365057089140401,05/03/2011 07:10,312.45
365057089140401,05/03/2011 07:11,312.45
365057089140401,05/03/2011 07:12,312.46
365057089140401,05/03/2011 07:13,312.46
365057089140401,05/03/2011 07:14,312.46
365057089140401,05/03/2011 07:15,312.47
365057089140401,05/03/2011 07:16,312.48
365057089140401,05/03/2011 07:17,312.48
365057089140401,05/03/2011 07:18,312.48
365057089140401,05/03/2011 07:19,312.48
365057089140401,05/03/2011 07:20,312.47
365057089140401,05/03/2011 07:21,312.5
365057089140401,05/03/2011 07:22,312.49
365057089140401,05/03/2011 07:23,312.5
365057089140401,05/03/2011 07:24,312.49
365057089140401,05/03/2011 07:25,312.5
365057089140401,05/03/2011 07:26,312.5
365057089140401,05/03/2011 07:27,312.52
365057089140401,05/03/2011 07:28,312.51
365057089140401,05/03/2011 07:29,312.52
365057089140401,05/03/2011 07:30,312.52
365057089140401,05/03/2011 07:31,312.51
365057089140401,05/03/2011 07:32,312.51
365057089140401,05/03/2011 07:33,312.53
365057089140401,05/03/2011 07:34,312.52
365057089140401,05/03/2011 07:35,312.53
365057089140401,05/03/2011 07:36,312.52
365057089140401,05/03/2011 07:37,312.53
365057089140401,05/03/2011 07:38,312.52
365057089140401,05/03/2011 07:39,312.53
365057089140401,05/03/2011 07:40,312.55
365057089140401,05/03/2011 07:41,312.55
365057089140401,05/03/2011 07:42,312.55
365057089140401,05/03/2011 07:43,312.53
365057089140401,05/03/2011 07:44,312.56
365057089140401,05/03/2011 07:45,312.56
365057089140401,05/03/2011 07:46,312.55
365057089140401,05/03/2011 07:47,312.54
365057089140401,05/03/2011 07:48,312.55
365057089140401,05/03/2011 07:49,312.56
365057089140401,05/03/2011 07:50,312.55
365057089140401,05/03/2011 07:51,312.57
365057089140401,05/03/2011 07:52,312.56
365057089140401,05/03/2011 07:53,312.57
365057089140401,05/03/2011 07:54,312.57
365057089140401,05/03/2011 07:55,312.56
365057089140401,05/03/2011 07:56,312.58
365057089140401,05/03/2011 07:57,312.57
365057089140401,05/03/2011 07:58,312.6
365057089140401,05/03/2011 07:59,312.58
365057089140401,05/03/2011 08:00,312.57
365057089140401,05/03/2011 08:01,312.56
365057089140401,05/03/2011 08:02,312.58
365057089140401,05/03/2011 08:03,312.58
365057089140401,05/03/2011 08:04,312.59
365057089140401,05/03/2011 08:05,312.59
365057089140401,05/03/2011 08:06,312.59
365057089140401,05/03/2011 08:07,312.59
365057089140401,05/03/2011 08:08,312.59
365057089140401,05/03/2011 08:09,312.6
365057089140401,05/03/2011 08:10,312.62
365057089140401,05/03/2011 08:11,312.6
365057089140401,05/03/2011 08:12,312.6
365057089140401,05/03/2011 08:13,312.6
365057089140401,05/03/2011 08:14,312.6
365057089140401,05/03/2011 08:15,312.6
365057089140401,05/03/2011 08:16,312.59
365057089140401,05/03/2011 08:17,312.59
365057089140401,05/03/2011 08:18,312.6
365057089140401,05/03/2011 08:19,312.6
365057089140401,05/03/2011 08:20,312.6
365057089140401,05/03/2011 08:21,312.6
365057089140401,05/03/2011 08:22,312.64
365057089140401,05/03/2011 08:23,312.62
365057089140401,05/03/2011 08:24,312.63
365057089140401,05/03/2011 08:25,312.62
365057089140401,05/03/2011 08:26,312.62
365057089140401,05/03/2011 08:27,312.62
365057089140401,05/03/2011 08:28,312.62
365057089140401,05/03/2011 08:29,312.63
365057089140401,05/03/2011 08:30,312.61
365057089140401,05/03/2011 08:31,312.62
365057089140401,05/03/2011 08:32,312.63
365057089140401,05/03/2011 08:33,312.63
365057089140401,05/03/2011 08:34,312.62
365057089140401,05/03/2011 08:35,312.63
365057089140401,05/03/2011 08:36,312.62
365057089140401,05/03/2011 08:37,312.64
365057089140401,05/03/2011 08:38,312.63
365057089140401,05/03/2011 08:39,312.64
365057089140401,05/03/2011 08:40,312.64
365057089140401,05/03/2011 08:41,312.63
365057089140401,05/03/2011 08:42,312.62
365057089140401,05/03/2011 08:43,312.64
365057089140401,05/03/2011 08:44,312.64
365057089140401,05/03/2011 08:45,312.63
365057089140401,05/03/2011 08:46,312.65
365057089140401,05/03/2011 08:47,312.64
365057089140401,05/03/2011 08:48,312.65
365057089140401,05/03/2011 08:49,312.64
365057089140401,05/03/2011 08:50,312.64
365057089140401,05/03/2011 08:51,312.65
365057089140401,05/03/2011 08:52,312.64
365057089140401,05/03/2011 08:53,312.66
365057089140401,05/03/2011 08:54,312.66
365057089140401,05/03/2011 08:55,312.67
365057089140401,05/03/2011 08:56,312.65
365057089140401,05/03/2011 08:57,312.66
365057089140401,05/03/2011 08:58,312.65
365057089140401,05/03/2011 08:59,312.65
365057089140401,05/03/2011 09:00,312.64
365057089140401,05/03/2011 09:01,312.66
365057089140401,05/03/2011 09:02,312.67
365057089140401,05/03/2011 09:03,312.66
365057089140401,05/03/2011 09:04,312.66
365057089140401,05/03/2011 09:05,312.65
365057089140401,05/03/2011 09:06,312.68
365057089140401,05/03/2011 09:07,312.67
365057089140401,05/03/2011 09:08,312.66
365057089140401,05/03/2011 09:09,312.68
365057089140401,05/03/2011 09:10,312.67
365057089140401,05/03/2011 09:11,312.67
365057089140401,05/03/2011 09:12,312.68
365057089140401,05/03/2011 09:13,312.69
365057089140401,05/03/2011 09:14,312.68
365057089140401,05/03/2011 09:15,312.69
365057089140401,05/03/2011 09:16,312.68
365057089140401,05/03/2011 09:17,312.69
365057089140401,05/03/2011 09:18,312.69
365057089140401,05/03/2011 09:19,312.68
365057089140401,05/03/2011 09:20,312.68
365057089140401,05/03/2011 09:21,312.68
365057089140401,05/03/2011 09:22,312.68
365057089140401,05/03/2011 09:23,312.67
365057089140401,05/03/2011 09:24,312.68
365057089140401,05/03/2011 09:25,312.68
365057089140401,05/03/2011 09:26,312.67
365057089140401,05/03/2011 09:27,312.68
365057089140401,05/03/2011 09:28,312.68
365057089140401,05/03/2011 09:29,312.68
365057089140401,05/03/2011 09:30,312.69
365057089140401,05/03/2011 09:31,312.68
365057089140401,05/03/2011 09:32,312.68
365057089140401,05/03/2011 09:33,312.7
365057089140401,05/03/2011 09:34,312.68
365057089140401,05/03/2011 09:35,312.68
365057089140401,05/03/2011 09:36,312.69
365057089140401,05/03/2011 09:37,312.69
365057089140401,05/03/2011 09:38,312.69
365057089140401,05/03/2011 09:39,312.68
365057089140401,05/03/2011 09:40,312.7
365057089140401,05/03/2011 09:41,312.69
365057089140401,05/03/2011 09:42,312.7
365057089140401,05/03/2011 09:43,312.7
365057089140401,05/03/2011 09:44,312.69
365057089140401,05/03/2011 09:45,312.71
365057089140401,05/03/2011 09:46,312.71
365057089140401,05/03/2011 09:47,312.7
365057089140401,05/03/2011 09:48,312.71
365057089140401,05/03/2011 09:49,312.7
365057089140401,05/03/2011 09:50,312.7
365057089140401,05/03/2011 09:51,312.71
365057089140401,05/03/2011 09:52,312.72
365057089140401,05/03/2011 09:53,312.69
365057089140401,05/03/2011 09:54,312.7
365057089140401,05/03/2011 09:55,312.69
365057089140401,05/03/2011 09:56,312.7
365057089140401,05/03/2011 09:57,312.7
365057089140401,05/03/2011 09:58,312.71
365057089140401,05/03/2011 09:59,312.7
365057089140401,05/03/2011 10:00,312.69
365057089140401,05/03/2011 10:01,312.72
365057089140401,05/03/2011 10:02,312.72
365057089140401,05/03/2011 10:03,312.72
365057089140401,05/03/2011 10:04,312.71
365057089140401,05/03/2011 10:05,312.71
365057089140401,05/03/2011 10:06,312.71
365057089140401,05/03/2011 10:07,312.71
365057089140401,05/03/2011 10:08,312.71
365057089140401,05/03/2011 10:09,312.72
365057089140401,05/03/2011 10:10,312.72
365057089140401,05/03/2011 10:11,312.73
365057089140401,05/03/2011 10:12,312.72
365057089140401,05/03/2011 10:13,312.71
365057089140401,05/03/2011 10:14,312.71
365057089140401,05/03/2011 10:15,312.71
365057089140401,05/03/2011 10:16,312.71
365057089140401,05/03/2011 10:17,312.73
365057089140401,05/03/2011 10:18,312.71
365057089140401,05/03/2011 10:19,312.71
365057089140401,05/03/2011 10:20,312.73
365057089140401,05/03/2011 10:21,312.72
365057089140401,05/03/2011 10:22,312.72
365057089140401,05/03/2011 10:23,312.73
365057089140401,05/03/2011 10:24,312.74
365057089140401,05/03/2011 10:25,312.72
365057089140401,05/03/2011 10:26,312.72
365057089140401,05/03/2011 10:27,312.71
365057089140401,05/03/2011 10:28,312.73
365057089140401,05/03/2011 10:29,312.73
365057089140401,05/03/2011 10:30,312.74
365057089140401,05/03/2011 10:31,312.75
365057089140401,05/03/2011 10:32,312.74
365057089140401,05/03/2011 10:33,312.73
365057089140401,05/03/2011 10:34,312.74
365057089140401,05/03/2011 10:35,312.74
365057089140401,05/03/2011 10:36,312.74
365057089140401,05/03/2011 10:37,312.75
365057089140401,05/03/2011 10:38,312.74
365057089140401,05/03/2011 10:39,312.75
365057089140401,05/03/2011 10:40,312.75
365057089140401,05/03/2011 10:41,312.74
365057089140401,05/03/2011 10:42,312.75
365057089140401,05/03/2011 10:43,312.76
365057089140401,05/03/2011 10:44,312.75
365057089140401,05/03/2011 10:45,312.75
365057089140401,05/03/2011 10:46,312.76
365057089140401,05/03/2011 10:47,312.76
365057089140401,05/03/2011 10:48,312.76
365057089140401,05/03/2011 10:49,312.76
365057089140401,05/03/2011 10:50,312.75
365057089140401,05/03/2011 10:51,312.75
365057089140401,05/03/2011 10:52,312.75
365057089140401,05/03/2011 10:53,312.75
365057089140401,05/03/2011 10:54,312.75
365057089140401,05/03/2011 10:55,312.76
365057089140401,05/03/2011 10:56,312.76
365057089140401,05/03/2011 10:57,312.77
365057089140401,05/03/2011 10:58,312.75
365057089140401,05/03/2011 10:59,312.75
365057089140401,05/03/2011 11:00,312.76
365057089140401,05/03/2011 11:01,312.76
365057089140401,05/03/2011 11:02,312.76
365057089140401,05/03/2011 11:03,312.77
365057089140401,05/03/2011 11:04,312.76
365057089140401,05/03/2011 11:05,312.76
365057089140401,05/03/2011 11:06,312.77
365057089140401,05/03/2011 11:07,312.77
365057089140401,05/03/2011 11:08,312.76
365057089140401,05/03/2011 11:09,312.77
365057089140401,05/03/2011 11:10,312.77
365057089140401,05/03/2011 11:11,312.77
365057089140401,05/03/2011 11:12,312.77
365057089140401,05/03/2011 11:13,312.79
365057089140401,05/03/2011 11:14,312.77
365057089140401,05/03/2011 11:15,312.77
365057089140401,05/03/2011 11:16,312.77
365057089140401,05/03/2011 11:17,312.76
365057089140401,05/03/2011 11:18,312.76
365057089140401,05/03/2011 11:19,312.77
365057089140401,05/03/2011 11:20,312.77
365057089140401,05/03/2011 11:21,312.77
365057089140401,05/03/2011 11:22,312.8
365057089140401,05/03/2011 11:23,312.76
365057089140401,05/03/2011 11:24,312.77
365057089140401,05/03/2011 11:25,312.78
365057089140401,05/03/2011 11:26,312.78
365057089140401,05/03/2011 11:27,312.77
365057089140401,05/03/2011 11:28,312.79
365057089140401,05/03/2011 11:29,312.77
365057089140401,05/03/2011 11:30,312.79
365057089140401,05/03/2011 11:31,312.78
365057089140401,05/03/2011 11:32,312.78
365057089140401,05/03/2011 11:33,312.8
365057089140401,05/03/2011 11:34,312.79
365057089140401,05/03/2011 11:35,312.79
365057089140401,05/03/2011 11:36,312.8
365057089140401,05/03/2011 11:37,312.79
365057089140401,05/03/2011 11:38,312.8
365057089140401,05/03/2011 11:39,312.79
365057089140401,05/03/2011 11:40,312.79
365057089140401,05/03/2011 11:41,312.8
365057089140401,05/03/2011 11:42,312.8
365057089140401,05/03/2011 11:43,312.79
365057089140401,05/03/2011 11:44,312.78
365057089140401,05/03/2011 11:45,312.8
365057089140401,05/03/2011 11:46,312.8
365057089140401,05/03/2011 11:47,312.79
365057089140401,05/03/2011 11:48,312.79
365057089140401,05/03/2011 11:49,312.8
365057089140401,05/03/2011 11:50,312.81
365057089140401,05/03/2011 11:51,312.8
365057089140401,05/03/2011 11:52,312.8
365057089140401,05/03/2011 11:53,312.79
365057089140401,05/03/2011 11:54,312.79
365057089140401,05/03/2011 11:55,312.8
365057089140401,05/03/2011 11:56,312.8
365057089140401,05/03/2011 11:57,312.8
365057089140401,05/03/2011 11:58,312.8
365057089140401,05/03/2011 11:59,312.81
365057089140401,05/03/2011 12:00,312.8
365057089140401,05/03/2011 12:01,312.8
365057089140401,05/03/2011 12:02,312.81
365057089140401,05/03/2011 12:03,312.8
365057089140401,05/03/2011 12:04,312.8
365057089140401,05/03/2011 12:05,312.8
365057089140401,05/03/2011 12:06,312.79
365057089140401,05/03/2011 12:07,312.8
365057089140401,05/03/2011 12:08,312.81
365057089140401,05/03/2011 12:09,312.82
365057089140401,05/03/2011 12:10,312.8
365057089140401,05/03/2011 12:11,312.82
365057089140401,05/03/2011 12:12,312.8
365057089140401,05/03/2011 12:13,312.79
365057089140401,05/03/2011 12:14,312.8
365057089140401,05/03/2011 12:15,312.8
365057089140401,05/03/2011 12:16,312.81
365057089140401,05/03/2011 12:17,312.81
365057089140401,05/03/2011 12:18,312.81
365057089140401,05/03/2011 12:19,312.81
365057089140401,05/03/2011 12:20,312.81
365057089140401,05/03/2011 12:21,312.82
365057089140401,05/03/2011 12:22,312.8
365057089140401,05/03/2011 12:23,312.81
365057089140401,05/03/2011 12:24,312.79
365057089140401,05/03/2011 12:25,312.81
365057089140401,05/03/2011 12:26,312.82
365057089140401,05/03/2011 12:27,312.81
365057089140401,05/03/2011 12:28,312.81
365057089140401,05/03/2011 12:29,312.82
365057089140401,05/03/2011 12:30,312.81
365057089140401,05/03/2011 12:31,312.82
365057089140401,05/03/2011 12:32,312.8
365057089140401,05/03/2011 12:33,312.82
365057089140401,05/03/2011 12:34,312.81
365057089140401,05/03/2011 12:35,312.8
365057089140401,05/03/2011 12:36,312.79
365057089140401,05/03/2011 12:37,312.8
365057089140401,05/03/2011 12:38,312.82
365057089140401,05/03/2011 12:39,312.81
365057089140401,05/03/2011 12:40,312.82
365057089140401,05/03/2011 12:41,312.82
365057089140401,05/03/2011 12:42,312.81
365057089140401,05/03/2011 12:43,312.81
365057089140401,05/03/2011 12:44,312.82
365057089140401,05/03/2011 12:45,312.81
365057089140401,05/03/2011 12:46,312.81
365057089140401,05/03/2011 12:47,312.81
365057089140401,05/03/2011 12:48,312.82
365057089140401,05/03/2011 12:49,312.81
365057089140401,05/03/2011 12:50,312.82
365057089140401,05/03/2011 12:51,312.81
365057089140401,05/03/2011 12:52,312.82
365057089140401,05/03/2011 12:53,312.82
365057089140401,05/03/2011 12:54,312.82
365057089140401,05/03/2011 12:55,312.83
365057089140401,05/03/2011 12:56,312.83
365057089140401,05/03/2011 12:57,312.82
365057089140401,05/03/2011 12:58,312.83
365057089140401,05/03/2011 12:59,312.81
365057089140401,05/03/2011 13:00,312.82
365057089140401,05/03/2011 13:01,312.81
365057089140401,05/03/2011 13:02,312.8
365057089140401,05/03/2011 13:03,312.82
365057089140401,05/03/2011 13:04,312.81
365057089140401,05/03/2011 13:05,312.84
365057089140401,05/03/2011 13:06,312.81
365057089140401,05/03/2011 13:07,312.82
365057089140401,05/03/2011 13:08,312.81
365057089140401,05/03/2011 13:09,312.82